(274858) = 2009 RC15

Discovered at Kitt Peak on 2009-09-12 by Spacewatch.

Orbit

Orbit type: Main Belt

Note: WebGL enabled browser required.

epoch2023-09-13.0
epoch JD2460200.5
perihelion date2022-01-20.62559
perihelion JD2459600.12559
argument of perihelion (°)311.19630
ascending node (°)181.89537
inclination (°)3.60386
eccentricity0.1314268
perihelion distance (AU)2.0923415
Tisserand w.r.t. Jupiter3.5
ΔV w.r.t. Earth (km/sec)9.1
semimajor axis (AU)2.4089409
mean anomaly (°)158.26569
mean daily motion (°/day)0.26361170
aphelion distance (AU)2.726
period (years)3.74
P-vector [x]-0.68311840
P-vector [y]0.68745146
P-vector [z]0.24649492
Q-vector [x]-0.73030468
Q-vector [y]-0.64206795
Q-vector [z]-0.23324625
absolute magnitude17.28
phase slope0.15
uncertainty0
referenceMPEC 2023-X152
observations used284
oppositions12
arc length (days)10026
first opposition used1994
last opposition used2022
residual rms (arc-secs)0.75
perturbers coarse indicatorM-v
perturbers precise indicator003Ek
first observation date used1994-10-08.0
last observation date used2022-03-21.0
computer nameMPCLINUX
JD of orbit computation2456670.737062
perihelion JD uncertainty (days)1.8083E-04
argument of perihelion uncertainty (°)8.7341E-05
ascending node uncertainty (°)6.6893E-05
inclination uncertainty (°)8.8404E-06
eccentricity uncertainty 6.6151E-08
perihelion distance uncertainty (AU)1.6677E-07
Minimum Orbit Intersection Distances (in AU)
for orbit epoch: 2460200.5, reference: E2023-XF2
Mercury1.75316
Venus1.37899
Earth1.10716
Mars0.45378
Jupiter2.31088
Saturn6.813
Uranus16.2916
Neptune27.2774

Observations

296 total observations over interval: 1994 10 08.19416 – 2022 03 21.273488
These data are available for download (format description).

Date (UT) J2000 RA J2000 Dec Magn Location Ref
1994 10 08.19416 00 56 53.57 +04 41 16.0 20.4 V 691 – Steward Observatory, Kitt Peak-Spacewatch MPS 297026
1994 10 08.21818 00 56 52.19 +04 41 06.0   691 – Steward Observatory, Kitt Peak-Spacewatch MPS 297026
1994 10 08.25551 00 56 50.14 +04 40 49.5   691 – Steward Observatory, Kitt Peak-Spacewatch MPS 297026
2005 09 13.32322 23 21 14.85 -02 51 16.6 20.5 V 691 – Steward Observatory, Kitt Peak-Spacewatch MPS 297026
2005 09 13.34123 23 21 13.87 -02 51 24.1 20.5 V 691 – Steward Observatory, Kitt Peak-Spacewatch MPS 297026
2005 09 13.36196 23 21 12.73 -02 51 33.0 20.5 V 691 – Steward Observatory, Kitt Peak-Spacewatch MPS 297026
2005 12 02.08001 23 07 15.20 -06 05 51.5 21.5 V G96 – Mt. Lemmon Survey MPS 297026
2005 12 02.08804 23 07 15.56 -06 05 50.1 21.3 V G96 – Mt. Lemmon Survey MPS 297026
2005 12 02.09610 23 07 15.99 -06 05 47.6 21.4 V G96 – Mt. Lemmon Survey MPS 297026
2005 12 02.10410 23 07 16.28 -06 05 46.2 21.4 V G96 – Mt. Lemmon Survey MPS 297026
2007 01 25.29826 09 09 33.15 +10 54 06.3 19.3 V 703 – Catalina Sky Survey MPS 297026
2007 01 25.30845 09 09 32.61 +10 54 10.0 19.4 V 703 – Catalina Sky Survey MPS 297026
2007 01 25.31869 09 09 32.07 +10 54 12.7 19.4 V 703 – Catalina Sky Survey MPS 297026
2007 01 25.32891 09 09 31.46 +10 54 15.3 19.6 V 703 – Catalina Sky Survey MPS 297026
2007 02 06.30470 08 58 25.14 +11 59 45.1 19.9 R 644 – Palomar Mountain/NEAT MPS 297026
2007 02 06.32621 08 58 23.87 +11 59 53.4 19.4 R 644 – Palomar Mountain/NEAT MPS 297026
2007 02 06.34649 08 58 22.71 +12 00 00.3 19.5 R 644 – Palomar Mountain/NEAT MPS 297026
2007 02 08.21154 08 56 39.04 +12 11 02.1 20.2 V 703 – Catalina Sky Survey MPS 297026
2007 02 08.22014 08 56 38.25 +12 11 04.9 19.1 V 703 – Catalina Sky Survey MPS 297026
2007 02 08.22873 08 56 37.78 +12 11 09.8 20.0 V 703 – Catalina Sky Survey MPS 297026
2007 02 08.23733 08 56 37.28 +12 11 11.4 20.4 V 703 – Catalina Sky Survey MPS 297026
2007 03 16.22616 08 37 54.30 +15 08 00.6 20.3 V G96 – Mt. Lemmon Survey MPS 297026
2007 03 16.23288 08 37 54.33 +15 08 02.0 20.4 V G96 – Mt. Lemmon Survey MPS 297026
2007 03 16.23963 08 37 54.33 +15 08 02.9 20.4 V G96 – Mt. Lemmon Survey MPS 297026
2007 03 16.24645 08 37 54.33 +15 08 04.2 20.5 V G96 – Mt. Lemmon Survey MPS 297026
2009 09 12.32699 01 29 53.59 +08 28 43.5   691 – Steward Observatory, Kitt Peak-Spacewatch MPS 295968
2009 09 12.34459 01 29 53.08 +08 28 38.6   691 – Steward Observatory, Kitt Peak-Spacewatch MPS 295968
2009 09 12.36218 01 29 52.51 +08 28 33.9   691 – Steward Observatory, Kitt Peak-Spacewatch MPS 295968
2009 09 16.29137 01 27 51.62 +08 09 57.1 20.8 V 691 – Steward Observatory, Kitt Peak-Spacewatch MPS 295968
2009 09 16.30897 01 27 50.99 +08 09 51.8 21.0 V 691 – Steward Observatory, Kitt Peak-Spacewatch MPS 295968
2009 09 16.32658 01 27 50.38 +08 09 46.4 20.7 V 691 – Steward Observatory, Kitt Peak-Spacewatch MPS 295968
2009 09 20.29959 01 25 25.69 +07 48 35.4 20.8 V 691 – Steward Observatory, Kitt Peak-Spacewatch MPS 295968
2009 09 20.31721 01 25 24.99 +07 48 29.9 21.0 V 691 – Steward Observatory, Kitt Peak-Spacewatch MPS 295968
2009 09 20.33483 01 25 24.28 +07 48 23.6 21.3 V 691 – Steward Observatory, Kitt Peak-Spacewatch MPS 295968
2009 09 24.32549 01 22 38.54 +07 24 57.8 20.9 V 691 – Steward Observatory, Kitt Peak-Spacewatch MPS 295968
2009 09 24.34315 01 22 37.75 +07 24 51.7 20.6 V 691 – Steward Observatory, Kitt Peak-Spacewatch MPS 295968
2009 09 24.36081 01 22 36.90 +07 24 45.0 21.2 V 691 – Steward Observatory, Kitt Peak-Spacewatch MPS 295968
2011 02 23.33013 12 22 16.81 -03 33 26.1 20.2 V 691 – Steward Observatory, Kitt Peak-Spacewatch MPS 371457
2011 02 23.34788 12 22 16.34 -03 33 21.6 20.1 V 691 – Steward Observatory, Kitt Peak-Spacewatch MPS 371457
2011 02 23.36563 12 22 15.84 -03 33 16.3 20.1 V 691 – Steward Observatory, Kitt Peak-Spacewatch MPS 371457
2011 02 28.01233 12 19 55.16 -03 08 47.1 19.4 V J75 – OAM Observatory, La Sagra MPS 372083
2011 02 28.02422 12 19 54.69 -03 08 42.7 20.1 V J75 – OAM Observatory, La Sagra MPS 372083
2011 02 28.03612 12 19 54.27 -03 08 38.7 20.0 V J75 – OAM Observatory, La Sagra MPS 372083
2011 03 04.28119 12 17 16.99 -02 42 35.8 20.0 V 691 – Steward Observatory, Kitt Peak-Spacewatch MPS 373505
2011 03 04.29889 12 17 16.23 -02 42 28.7 20.0 V 691 – Steward Observatory, Kitt Peak-Spacewatch MPS 373505
2011 03 04.31658 12 17 15.50 -02 42 22.2 20.0 V 691 – Steward Observatory, Kitt Peak-Spacewatch MPS 373505
2011 03 10.52795 12 12 44.497 -01 59 04.60 20.3 g F51 – Pan-STARRS 1, Haleakala MPS 387757
2011 03 10.52858 12 12 44.472 -01 59 04.33 20.3 g F51 – Pan-STARRS 1, Haleakala MPS 387757
2011 03 10.54039 12 12 43.904 -01 58 59.08 20.3 g F51 – Pan-STARRS 1, Haleakala MPS 387757
2011 03 10.54103 12 12 43.862 -01 58 58.80 20.4 g F51 – Pan-STARRS 1, Haleakala MPS 387757
2011 03 10.55451 12 12 43.193 -01 58 52.62 19.9 r F51 – Pan-STARRS 1, Haleakala MPS 387757
2011 03 10.55511 12 12 43.165 -01 58 52.54 19.9 r F51 – Pan-STARRS 1, Haleakala MPS 387757
2011 03 10.56680 12 12 42.592 -01 58 47.43 20.1 r F51 – Pan-STARRS 1, Haleakala MPS 387757
2011 03 14.55204 12 09 30.520 -01 28 38.88 19.8 r F51 – Pan-STARRS 1, Haleakala MPS 382095
2011 03 14.57720 12 09 29.219 -01 28 27.22 20.1 g F51 – Pan-STARRS 1, Haleakala MPS 382095
2011 03 14.58879 12 09 28.618 -01 28 21.78 20.3 g F51 – Pan-STARRS 1, Haleakala MPS 382095
2011 03 23.80270 12 01 41.21 -00 15 32.9 19.9 R A50 – Andrushivka Astronomical Observatory MPS 375628
2011 03 23.82082 12 01 40.27 -00 15 24.8 19.6 R A50 – Andrushivka Astronomical Observatory MPS 375628
2011 03 23.83894 12 01 39.34 -00 15 16.7 19.9 R A50 – Andrushivka Astronomical Observatory MPS 375628
2011 03 24.23035 12 01 19.45 -00 12 07.8 20.3 V 703 – Catalina Sky Survey MPS 375628
2011 03 24.23666 12 01 19.12 -00 12 05.1 19.7 V 703 – Catalina Sky Survey MPS 375628
2011 03 24.24297 12 01 18.73 -00 12 02.6 19.4 V 703 – Catalina Sky Survey MPS 375628
2011 03 27.31636 11 58 43.82 +00 12 08.5 20.2   704 – Lincoln Laboratory ETS, New Mexico MPS 375628
2011 03 27.32868 11 58 43.16 +00 12 13.0 20.4   704 – Lincoln Laboratory ETS, New Mexico MPS 375628
2011 03 27.34103 11 58 42.55 +00 12 19.9 19.7   704 – Lincoln Laboratory ETS, New Mexico MPS 375628
2011 03 27.35340 11 58 41.70 +00 12 24.5 19.9   704 – Lincoln Laboratory ETS, New Mexico MPS 375628
2011 03 28.31043 11 57 54.54 +00 19 49.0 19.4 V G96 – Mt. Lemmon Survey MPS 375628
2011 03 28.31098 11 57 54.50 +00 19 49.4 19.4 V G96 – Mt. Lemmon Survey MPS 375628
2011 03 28.31654 11 57 54.21 +00 19 51.9 19.5 V G96 – Mt. Lemmon Survey MPS 375628
2011 03 28.31712 11 57 54.18 +00 19 52.2 19.5 V G96 – Mt. Lemmon Survey MPS 375628
2011 03 28.32179 11 57 53.92 +00 19 54.4 19.4 V G96 – Mt. Lemmon Survey MPS 375628
2011 03 28.32236 11 57 53.92 +00 19 54.6 19.5 V G96 – Mt. Lemmon Survey MPS 375628
2011 03 28.32699 11 57 53.67 +00 19 56.7 19.6 V G96 – Mt. Lemmon Survey MPS 375628
2011 03 28.32757 11 57 53.64 +00 19 57.0 19.7 V G96 – Mt. Lemmon Survey MPS 375628
2011 03 29.30729 11 57 05.76 +00 27 28.5 19.9   704 – Lincoln Laboratory ETS, New Mexico MPS 375628
2011 03 29.32056 11 57 05.12 +00 27 35.7 20.3   704 – Lincoln Laboratory ETS, New Mexico MPS 375628
2011 03 29.35860 11 57 03.10 +00 27 51.6 19.8   704 – Lincoln Laboratory ETS, New Mexico MPS 375628
2011 03 31.36256 11 55 27.366 +00 43 00.33 20.0 w F51 – Pan-STARRS 1, Haleakala MPS 377243
2011 03 31.37813 11 55 26.597 +00 43 07.40 20.1 w F51 – Pan-STARRS 1, Haleakala MPS 377243
2011 03 31.39469 11 55 25.775 +00 43 14.80 20.0 w F51 – Pan-STARRS 1, Haleakala MPS 377243
2011 04 01.33032 11 54 42.158 +00 50 10.24 20.1 w F51 – Pan-STARRS 1, Haleakala MPS 377243
2011 04 01.34444 11 54 41.470 +00 50 16.52 20.1 w F51 – Pan-STARRS 1, Haleakala MPS 377243
2011 04 01.35948 11 54 40.746 +00 50 23.23 20.0 w F51 – Pan-STARRS 1, Haleakala MPS 377243
2013 09 29.42613 03 45 06.35 +16 36 39.5 21.0 V G96 – Mt. Lemmon Survey MPS 479874
2013 09 29.43668 03 45 06.24 +16 36 38.3 20.6 V G96 – Mt. Lemmon Survey MPS 479874
2013 09 29.44734 03 45 06.29 +16 36 36.3 20.4 V G96 – Mt. Lemmon Survey MPS 479874
2013 09 29.45798 03 45 06.24 +16 36 34.8 20.7 V G96 – Mt. Lemmon Survey MPS 479874
